Location: Unnamed
(42.1164°N, 2.7652°E)
Time: 21:08:14
(UTC+02:00)

ISS - Pass Details

Date: 08 May 2021
Orbit: 417 x 422 km, 51.6° (Epoch: 14 June)

Event Time Altitude Azimuth Distance (km) Brightness Sun altitude
Exits shadow 02:47:38 16° 35° (NE) 1,175 -0.8 -29.1°
Drops below altitude 10° 02:48:33 10° 43° (NE) 1,509 -0.2 -29.0°
Sets 02:50:47 0° 53° (NE) 2,376 0.9 -28.9°
